OPS 4682 DEB, 38381

Orbit data source: Space-Track

OPS 4682 DEB, 38381 is space debris in LEO originally from a launch on Sat, 03 Apr 1965 UTC launched from the Air Force Western Test Range (AFWTR). Debris objects in space refer to the collection of defunct objects orbiting the Earth. Examples of debris include non-operational satellites, rocket bodies, and fragments generated from explosions, collisions, or faulty payload assembly.

Loading next visibility...
Identifier
38381, 1965-027CJ
Orbit
LEO
Country
Flag of USUS
Related business
Manufacturer
Unknown
Mission
Spacecraft
Bus & Motor
Unknown
Mass
Unknown
Launch date (UTC)
1965-04-03 (61 years ago)
Launch vehicle
Unknown
Launch site
Air Force Western Test Range (AFWTR)
Object type
Payload
Rocket body
Debris
Shape & HBR
Unknown shape, 0.1 m
Radar Cross Section
Small (<0.1 m²)

Expand to show TLE details & history
Last TLE update: 5 days ago

TLE from 5 days ago
0 OPS 4682 DEB
1 38381U 65027CJ  26031.38227811  .00000377  00000-0  12253-2 0  9999
2 38381  90.2522  15.1433 0019066 240.4910 119.4311 13.00148745568310
Epoch: 2026-01-31T09:10Z
TLE epoch observation values (Epoch: 2026-01-31T09:10:28.828Z)
Latitude
-0.00004°
Longitude
106.91611°
Altitude
1,271.567 km
Speed
7.216 km/s
True Right ascension
01h 00m 34s
True Declination
0° 00' 00"
Sunlit
Object was in daylight at epoch
Visualization orbit readout
Latitude
Unknown
Longitude
Unknown
Altitude
Unknown
Speed
Unknown
Apparent Right ascension
Unknown
Apparent Declination
Unknown
Sunlit
N/A
Visualization observer readout
Local Sidereal Time
10:11:03
Azimuth
Unknown
Elevation
Unknown
Doppler factor
Unknown
Orbital elements
Apogee altitude
1,273.191 km
Perigee altitude
1,244.07 km
Semi-major axis
7,636.768 km
Eccentricity
0.00191
Inclination
90.2522°
RAAN
15.1433°
Arg. of periapsis
240.491°
True anomaly
119.62116°
Mean anomaly
119.4311°
Eccentric anomaly
119.52615°
Mean motion
3.25221 °/min
Orbital period
110.69 mins
BSTAR
0.0012253
Loading maneuver chart data...
Computing Atmospheric mass density...
Loading historical data...
Loading historical data...
Loading historical data...
Loading historical data...
Loading historical data...
Loading historical data...
Loading historical data...

Documentation

Showing up to 5 results
|